Simultaneous Nadir Overpasses (SNOs) Predictions

Prediction of SNOs between LANDSAT-8 and METOP-B Satellite Orbit:

Table of predicted SNOs for the next 14.0 days since TLE Epoch: 7/23/2022
Index Date (LANDSAT-8) Time (LANDSAT-8) Lat,Lon (LANDSAT-8) SZA (LANDSAT-8 ) Date (METOP-B) Time (METOP-B) Lat,Lon (METOP-B) SZA (METOP-B ) Distance(km) Time Diff (sec)
1 07/24/2022 19:59:32 -81.18, 101.11 116.48 07/24/2022 19:59:10 -81.18, 101.16 116.49 0.97 22
2 07/24/2022 20:48:58 81.19, -91.14 63.55 07/24/2022 20:49:50 81.18, -91.33 63.55 3.19 52
3 07/27/2022 15:33:49 -81.17, 167.38 115.89 07/27/2022 15:33:31 -81.17, 167.36 115.90 0.33 18
4 07/27/2022 16:23:14 81.20, -24.53 64.19 07/27/2022 16:24:09 81.20, -24.37 64.23 2.64 55
5 07/30/2022 11:08:07 -81.16,-126.34 115.25 07/30/2022 11:07:53 -81.16,-126.47 115.26 2.21 14
6 07/30/2022 11:57:32 81.19, 41.72 64.83 07/30/2022 11:58:31 81.19, 41.78 64.86 1.07 59
7 08/02/2022 06:42:24 -81.17, -59.70 114.51 08/02/2022 06:42:13 -81.18, -59.59 114.50 1.88 11
8 08/02/2022 07:31:49 81.20, 108.34 65.56 08/02/2022 07:32:52 81.19, 108.27 65.58 1.32 63
9 08/05/2022 02:16:42 -81.16, 6.58 113.79 08/05/2022 02:16:35 -81.17, 6.50 113.80 1.49 7



Historial Predications of SNOs between LANDSAT-8 and METOP-B
